This is the latest recevied weather packets stored in our database for station/object 9M4RLD-3. If no packets are shown the sender has not sent any weather packets the latest 10 day(s).
| Time | Temp. | Humidity | Pressure | Rain* | Wind** | Luminosity | Snow |
|---|---|---|---|---|---|---|---|
| 1777708266 | 24.44° C | 100% | 1031 hPa | - | - | - | - |
| 1777707066 | 25° C | 100% | 1031.3 hPa | - | - | - | - |
| 1777705913 | 25.56° C | 100% | 1031.7 hPa | - | - | - | - |
| 1777705866 | 25.56° C | 100% | 1031.7 hPa | - | - | - | - |
| 1777704666 | 26.67° C | 100% | 1032.2 hPa | - | - | - | - |
| 1777703466 | 26.67° C | 100% | 1032.5 hPa | - | - | - | - |
| 1777702266 | 27.22° C | 100% | 1032.6 hPa | - | - | - | - |
| 1777701075 | 27.78° C | 100% | 1032.9 hPa | - | - | - | - |
| 1777701040 | 27.78° C | 100% | 1032.9 hPa | - | - | - | - |
| 1777699840 | 27.78° C | 100% | 1033 hPa | - | - | - | - |
| 1777698640 | 29.44° C | 100% | 1033.3 hPa | - | - | - | - |
| 1777697440 | 27.78° C | 100% | 1033.7 hPa | - | - | - | - |
| 1777696240 | 28.33° C | 100% | 1034 hPa | - | - | - | - |
| 1777695040 | 29.44° C | 100% | 1034.3 hPa | - | - | - | - |
| 1777693840 | 29.44° C | 100% | 1034.4 hPa | - | - | - | - |
| 1777692640 | 30° C | 100% | 1034.3 hPa | - | - | - | - |
| 1777691439 | 28.89° C | 100% | 1034.5 hPa | - | - | - | - |
| 1777690239 | 28.33° C | 100% | 1034.4 hPa | - | - | - | - |
| 1777689039 | 27.22° C | 100% | 1034.4 hPa | - | - | - | - |
| 1777687839 | 26.67° C | 100% | 1034 hPa | - | - | - | - |
| 1777686639 | 26.11° C | 100% | 1033.9 hPa | - | - | - | - |
| 1777685439 | 25.56° C | 100% | 1034 hPa | - | - | - | - |
| 1777684239 | 24.44° C | 100% | 1033.7 hPa | - | - | - | - |
| 1777683039 | 23.89° C | 100% | 1033.4 hPa | - | - | - | - |
| 1777681839 | 23.33° C | 100% | 1032.8 hPa | - | - | - | - |
* Rain since midnight (hover to see other rain measurements)
** Current wind speed in m/s (hover to see current wind gust speed)